星链-5878 (STARLINK-5878 )

导读

STARLINK-5878是美国太空探索技术公司(SpaceX)星链计划中的一颗卫星,于2023年3月17日发射升空。星链计划旨在构建全球卫星互联网星座,为全球偏远地区等提供低延迟高速互联网接入服务。STARLINK-5878加入星座后,进一步提升了星链网络的覆盖能力与服务稳定性。

基本信息
目录编号:
55955
目录名称:
STARLINK-5878
国际标识:
2023-037AT
轨道中心:
EARTH
卫星名称:
星链-5878
卫星全名:
星链-5878 (STARLINK-5878 )
卫星状态:
在轨 (已飞行1186 天)
发射日期:
2023-03-17 UTC
国别 :
美国 (US)
星等 :
--
轨道信息
数据来源 国际轨道数据
星历时间: 2026-06-15T04:02:04+0800
4小时前
查看轨道信息
半长轴: 6950.172km
偏心率: 0.0002858
轨道倾角: 70.000°
近地点辐角 265.482°
升交点赤经 19.559°
平近点角 94.601°
近地点: 570.048km
远地点: 574.022km
周期: 96.107分钟
每日圈数: 14.983369
详细信息
固有亮度:
5
最大亮度:
2.5
卫星平台:
Starlink v1.5
覆盖范围:
全球
运营商:
太空探索技术公司
运营商所在国:
美国
制造商(研发单位):
太空探索技术公司
制造商所在国:
美国
使用方式:
暂无
卫星简介
星链(Starlink)计划是由太空探索技术公司(SpaceX)提出的一个巨型低轨卫星互联网星座项目,计划在2019年至2024年间在太空搭建由约1.2万颗卫星组成的“星链”网络,其中1584颗将部署在地球上空550千米处的近地轨道,并从2020年开始工作。该卫星仍在工作。
2D轨道图
3D轨道图
轨道高度分析图
轨道倾角分析图
轨道综合分析图
查看轨道综合分析图